Flag for Switzerland Weather past 2 weeks in Delémont, Jura, Switzerland

Now
56 °F

Cool.


Feels Like: 54 °F
Forecast: 45 / 64 °F
Wind: 6 mph from Southwest

Location: Grenchen

Current Time: May 6, 2015 at 10:40:34 AM

Latest Report: May 6, 2015 at 10:00 AM


Visibility: N/A

Pressure: 30.07 "Hg

Humidity: 86%

Dew point: 51 °F

Location of DelémontLocation

Historic Weather in Delémont — Graph

°F

Delémont temperature yesterday

Maximum temperature yesterday: 68 °F (at 3:00 PM)
Minimum temperature yesterday: 56 °F (at 11:00 PM)
Average temperature yesterday: 61 °F

Past Weeks' High & Low Weather Summary

 TemperatureHumidityPressure
High72 °F (Apr 22, 4:00 PM)100% (Apr 26, 6:00 AM)30.39 "Hg (Apr 26, 6:00 AM)
Low33 °F (Apr 29, 4:00 AM)22% (Apr 22, 5:00 PM)29.47 "Hg (Apr 27, 3:00 PM)
Average55 °F76%29.94 "Hg
* Reported Apr 21 9:00 AM — May 6 9:00 AM, Delémont, Weather by CustomWeather, © 2015

Note: Actual official high and low records may vary slightly from our data, if they occured in-between our weather recording intervals... More about our weather records

Advertising

Delémont weather history for previous 24 hours

 ConditionsComfort  
Time TempWeatherWind HumidityBarometerVisibility
9:00 AM
Wed, May 6
53 °FCool.2 mph91%30.08 "HgN/A
8:00 AM52 °FCool.3 mph96%30.06 "HgN/A
7:00 AM52 °FCool.5 mph95%30.05 "HgN/A
6:00 AM52 °FCool.3 mph98%30.03 "HgN/A
5:00 AM53 °FCool.6 mph87%30.01 "HgN/A
4:00 AM55 °FCool.3 mph86%29.99 "HgN/A
3:00 AM56 °FCool.3 mph99%29.99 "HgN/A
2:00 AM55 °FCool.2 mph99%29.98 "HgN/A
1:00 AM56 °FCool.1 mph98%29.98 "HgN/A
12:00 AM56 °FCool.2 mph98%29.98 "HgN/A
11:00 PM
Tue, May 5
56 °FCool.1 mph99%29.97 "HgN/A
10:00 PM57 °FCool.1 mph98%29.96 "HgN/A
9:00 PM57 °FCool.1 mph97%29.95 "HgN/A
8:00 PM57 °FCool.8 mph94%29.93 "HgN/A
7:00 PM59 °FCool.7 mph86%29.89 "HgN/A
6:00 PM62 °FCool.12 mph74%29.86 "HgN/A
5:00 PM64 °FMild.12 mph66%29.83 "HgN/A
4:00 PM68 °FMild.13 mph60%29.80 "HgN/A
3:00 PM68 °FMild.8 mph72%29.81 "HgN/A
2:00 PM67 °FMild.10 mph72%29.80 "HgN/A
1:00 PM67 °FMild.15 mph65%29.78 "HgN/A
12:00 PM66 °FMild.12 mph79%29.76 "HgN/A
11:00 AM63 °FMild.6 mph93%29.76 "HgN/A
10:00 AM62 °FCool.1 mph92%29.74 "HgN/A
Weather by CustomWeather, © 2015

See weather overviewHow to use our weather pages